Location: Ethel Rock
(53.4667°N, 4.5667°W)
Time: 00:56:42
(UTC+00:00)

Spot 4 Rocket - Pass Details

Date: 24 October 2020
Orbit: 776 x 781 km, 98.7° (Epoch: 26 November)

Event Time Altitude Azimuth Distance (km) Brightness Sun altitude
Rises 03:33:06 0° 17° (NNE) 3,272 7.8 -31.3°
Reaches altitude 10° 03:35:26 10° 20° (NNE) 2,340 7.0 -30.9°
Enters shadow 03:39:57 60° 63° (ENE) 889 4.4 -30.3°
